Miscellaneous Local Product
Issued by NWS North Platte, NE

Home | Current Version | Previous Version | Graphics & Text | Print | Product List | Glossary On
Versions: 1 2 3 4 5 6 7 8 9 10 11 12 13 14 15 16 17 18 19 20 21 22 23 24 25 26 27 28 29 30 31 32 33 34 35 36 37 38 39 40 41 42 43 44 45 46 47 48 49 50
000
AXUS43 KLBF 190310
MISLBF


WESTERN AND NORTH CENTRAL NEBRASKA HOURLY WEATHER ROUNDUP
NATIONAL WEATHER SERVICE NORTH PLATTE NE
1000 PM CDT THU SEP 18 2014

***STATIONS NOT REPORTING VARIABLES SUCH AS SKY/WEATHER OR
PRESSURE ARE PROVIDED BY THE NEBRASKA DEPARTMENT OF
ROADS...RAWS...AND APRS NETWORKS...AND ARE NOT UNDER
NATIONAL WEATHER SERVICE QUALITY CONTROL***

...OBSERVATIONS IN AND NEAR THE EASTERN PANHANDLE OF NEBRASKA...

CITY           SKY/WX    TMP DP  RH WIND       PRES   REMARKS
PINE RIDGE     CLEAR     73  63  70 S20G25    29.79R
CHADRON        CLEAR     75  62  64 S20       29.77R
ALLIANCE       CLEAR     65  62  90 S16       29.87R
SIDNEY         CLEAR     68  61  78 SE12      29.92S
WHITECLAY        N/A     71  62  71 S14         N/A
RUSHVILLE        N/A     67  63  86 S15         N/A
LISCO            N/A     70  63  78 E13         N/A
BIG SPRINGS      N/A     66  62  87 E3          N/A
$$

...OBSERVATIONS IN NORTH CENTRAL NEBRASKA...

CITY           SKY/WX    TMP DP  RH WIND       PRES   REMARKS
VALENTINE      PTCLDY    65  61  87 S9        29.84R
THEDFORD       CLOUDY    67  62  83 S10G20    29.90R
AINSWORTH      PTCLDY    64  61  91 S7        29.86S
O`NEILL        CLOUDY    71  66  82 S14       29.88S
ORD            PTCLDY    67  64  90 SE6       29.89S
BROKEN BOW     CLOUDY    68  65  90 SE8       29.91R
SPRINGVIEW       N/A     68  63  83 E3          N/A
ROSE             N/A     72  69  90 SE14        N/A
NEWPORT          N/A     71  66  84 S12         N/A
COMSTOCK         N/A     69  69  98 CALM        N/A
CHAMBERS         N/A     69  65  87 S3G12       N/A
$$

...OBSERVATIONS IN SOUTHWEST NEBRASKA AND FAR NORTHEAST COLORADO...

CITY           SKY/WX    TMP DP  RH WIND       PRES   REMARKS
WRAY           FAIR      66  63  89 E7        29.92R
HOLYOKE        FAIR      64  61  88 SE7       29.92S
IMPERIAL       CLEAR     62  60  93 SE8       29.91R
OGALLALA       CLEAR     61  60  96 E5        29.91R
NORTH PLATTE   CLEAR     57  56  96 SE6       29.91R
MCCOOK         CLEAR     62  61  96 E3        29.90S
LEXINGTON      FOG       61  60  97 E5        29.91S VSB 1/4
PAXTON           N/A     61  58  88 CALM        N/A
SUTHERLAND       N/A     56  53  91 CALM        N/A
BRADY            N/A     62  59  90 CALM        N/A
GOTHENBURG       N/A     66  61  83 SE3         N/A
CALLAWAY         N/A     65  63  94 S7          N/A
$$

...SOME WEATHER OBSERVATIONS FROM AROUND THE REGION...

CITY           SKY/WX    TMP DP  RH WIND       PRES   REMARKS
DENVER         PTCLDY    71  34  25 S15       29.96R
LARAMIE        CLEAR     63  33  32 SE12      30.06S
CHEYENNE       CLEAR     70  37  29 S13       30.01R
SCOTTSBLUFF    CLEAR     70  62  76 SE9       29.86R
RAPID CITY     MOCLDY    71  53  52 SE6       29.73R
PIERRE         CLEAR     70  58  65 SE12      29.73R
WINNER         FAIR      70  62  76 S15       29.79F
SIOUX FALLS    MOCLDY    65  56  72 SE16G23   29.91S
OMAHA          CLEAR     65  57  75 SE14      29.98R
GRAND ISLAND   CLEAR     68  63  84 SE9       29.91S
KANSAS CITY    CLEAR     63  61  93 SE7       30.02R
WICHITA        CLEAR     70  64  81 SE13      29.98R
HAYS           CLEAR     73  61  64 S10       29.91R
LIBERAL        CLEAR     72  57  60 SW10      30.00R
GOODLAND       CLEAR     73  54  51 S14       29.94R
$$



USA.gov is the U.S. government's official web portal to all federal, state and local government web resources and services.